This demonstration page uses our WeatherBlox Daily Observations layout. Learn more.

Left ArrowRight Arrow

34.74481, -87.66753

Hourly Observations for August 4, 2015

Temp ( °F °C ) Dew Point ( °F °C ) Humidity (%) Winds ( mph kmh ) Pressure ( in mb ) Visibility ( mi km ) Precip ( " mm )
12:53 am 00:53 Clear 75 23.9 71 21.7 88 88 Calm 29.94 1014 10 16 0.00 0.00
1:53 am 01:53 Clear 74 23.3 71 21.7 91 91 Calm 29.94 1014 10 16 0.00 0.00
2:53 am 02:53 Clear 73 22.8 70 21.1 90 90 Calm 29.94 1014 10 16 0.00 0.00
3:53 am 03:53 Clear 72 22.2 69 20.6 91 91 Calm 29.95 1014 10 16 0.00 0.00
4:53 am 04:53 Clear 72 22.2 69 20.6 91 91 Calm 29.96 1015 10 16 0.00 0.00
5:53 am 05:53 Clear 71 21.7 67 19.4 87 87 Calm 29.98 1015 10 16 0.00 0.00
6:53 am 06:53 Sunny 73 22.8 70 21.1 90 90 Calm 30.00 1016 10 16 0.00 0.00
7:53 am 07:53 Sunny 78 25.6 72 22.2 82 82 Calm 30.01 1016 10 16 0.00 0.00
8:53 am 08:53 Sunny 85 29.4 72 22.2 65 65 Calm 30.01 1016 10 16 0.00 0.00
9:53 am 09:53 Sunny 88 31.1 72 22.2 59 59 Calm 30.02 1017 10 16 0.00 0.00
10:53 am 10:53 Sunny 93 33.9 69 20.6 46 46 Calm 30.02 1017 10 16 0.00 0.00
11:53 am 11:53 Sunny 95 35 66 18.9 39 39 Calm 30.01 1016 10 16 0.00 0.00
12:53 pm 12:53 Sunny 96 35.6 68 20 40 40 VRB 5 7 30.00 1016 10 16 0.00 0.00
1:53 pm 13:53 Sunny 97 36.1 65 18.3 35 35 NNW 6 9 29.99 1016 10 16 0.00 0.00
2:53 pm 14:53 Sunny 97 36.1 65 18.3 35 35 NNW 3 6 29.98 1015 10 16 0.00 0.00
3:53 pm 15:53 Sunny 97 36.1 64 17.8 34 34 Calm 29.96 1014 10 16 0.00 0.00
4:53 pm 16:53 Sunny 98 36.7 63 17.2 32 32 NW 5 7 29.94 1014 10 16 0.00 0.00
5:11 pm 17:11 Sunny with Nearby Thunderstorms 96 35.6 62 16.7 32 32 Calm 29.91 1013 10 16 0.00 0.00
5:26 pm 17:26 Sunny 91 32.8 65 18.3 42 42 S 16 26 29.91 1013 10 16 0.00 0.00
5:53 pm 17:53 Sunny 87 30.6 66 18.9 50 50 SSW 8 13 29.94 1014 10 16 0.00 0.00
6:53 pm 18:53 Mostly Sunny 87 30.6 67 19.4 51 51 Calm 29.94 1014 10 16 0.00 0.00
7:53 pm 19:53 Clear 82 27.8 70 21.1 67 67 Calm 29.96 1015 10 16 0.00 0.00
8:53 pm 20:53 Clear 80 26.7 70 21.1 71 71 Calm 29.98 1015 10 16 0.00 0.00
9:53 pm 21:53 Clear 78 25.6 69 20.6 74 74 Calm 30.00 1016 10 16 0.00 0.00
10:53 pm 22:53 Clear 78 25.6 72 22.2 82 82 Calm 30.00 1016 10 16 0.00 0.00
11:53 pm 23:53 Mostly Cloudy 78 25.6 72 22.2 82 82 Calm 30.00 1016 10 16 0.00 0.00

Powered by AerisWeather